Time,TemperatureF,DewpointF,PressureIn,WindDirection,WindDirectionDegrees,WindSpeedMPH,WindSpeedGustMPH,Humidity,HourlyPrecipIn,Conditions,Clouds,dailyrainin,SoftwareType,DateUTC
2013-01-31 00:05:00,66.0,59.6,30.05,NNW,337,22.0,30.0,80,0.00,,,0.00,Weather View 32 v70,2013-01-31 05:05:00,
2013-01-31 00:10:00,63.0,53.0,30.07,North,360,4.0,30.0,70,0.00,,,0.00,Weather View 32 v70,2013-01-31 05:10:00,
2013-01-31 00:15:00,61.0,50.7,30.07,NNW,337,15.0,30.0,69,0.00,,,0.00,Weather View 32 v70,2013-01-31 05:15:00,
2013-01-31 00:20:00,61.0,49.9,30.07,NNW,337,24.0,30.0,67,0.00,,,0.00,Weather View 32 v70,2013-01-31 05:20:00,
2013-01-31 00:25:00,60.0,50.5,30.07,NNW,337,23.0,30.0,71,0.00,,,0.01,Weather View 32 v70,2013-01-31 05:25:00,
2013-01-31 00:30:00,59.0,49.2,30.08,NNW,337,16.0,30.0,70,0.00,,,0.02,Weather View 32 v70,2013-01-31 05:30:00,
2013-01-31 00:40:00,58.0,48.2,30.07,NNW,337,19.0,30.0,70,0.00,,,0.03,Weather View 32 v70,2013-01-31 05:40:00,
2013-01-31 00:45:00,58.0,48.6,30.07,NNW,337,17.0,30.0,71,0.00,,,0.04,Weather View 32 v70,2013-01-31 05:45:00,
2013-01-31 00:50:00,58.0,47.9,30.07,NNW,337,8.0,30.0,69,0.00,,,0.04,Weather View 32 v70,2013-01-31 05:50:00,
2013-01-31 00:55:00,58.0,47.1,30.06,NNW,337,13.0,30.0,67,0.00,,,0.04,Weather View 32 v70,2013-01-31 05:55:00,
2013-01-31 01:00:00,58.0,46.3,30.06,NNW,337,7.0,30.0,65,0.00,,,0.05,Weather View 32 v70,2013-01-31 06:00:00,
2013-01-31 01:05:00,57.0,45.3,30.05,NNW,337,5.0,28.0,65,0.05,,,0.05,Weather View 32 v70,2013-01-31 06:05:00,
2013-01-31 01:10:00,57.0,45.3,30.05,NNW,337,9.0,28.0,65,0.05,,,0.05,Weather View 32 v70,2013-01-31 06:10:00,
2013-01-31 01:15:00,57.0,45.7,30.06,NNW,337,5.0,28.0,66,0.06,,,0.06,Weather View 32 v70,2013-01-31 06:15:00,
2013-01-31 01:20:00,57.0,45.7,30.06,NNW,337,6.0,28.0,66,0.06,,,0.06,Weather View 32 v70,2013-01-31 06:20:00,
2013-01-31 01:25:00,57.0,45.3,30.06,NNW,337,2.0,28.0,65,0.05,,,0.06,Weather View 32 v70,2013-01-31 06:25:00,
2013-01-31 01:35:00,57.0,44.9,30.06,NNW,337,5.0,28.0,64,0.05,,,0.07,Weather View 32 v70,2013-01-31 06:35:00,
2013-01-31 01:45:00,57.0,44.5,30.06,NNW,337,0.0,19.0,63,0.06,,,0.10,Weather View 32 v70,2013-01-31 06:45:00,
2013-01-31 01:50:00,57.0,44.1,30.06,North,360,0.0,19.0,62,0.07,,,0.11,Weather View 32 v70,2013-01-31 06:50:00,
2013-01-31 01:55:00,57.0,43.7,30.05,North,360,3.0,17.0,61,0.09,,,0.13,Weather View 32 v70,2013-01-31 06:55:00,
2013-01-31 02:00:00,57.0,43.7,30.05,NNW,337,3.0,15.0,61,0.09,,,0.14,Weather View 32 v70,2013-01-31 07:00:00,
2013-01-31 02:05:00,57.0,43.7,30.06,NNW,337,0.0,13.0,61,0.09,,,0.14,Weather View 32 v70,2013-01-31 07:05:00,
2013-01-31 02:10:00,57.0,43.2,30.05,North,360,1.0,12.0,60,0.10,,,0.15,Weather View 32 v70,2013-01-31 07:10:00,
2013-01-31 02:15:00,57.0,43.2,30.05,North,360,1.0,10.0,60,0.09,,,0.15,Weather View 32 v70,2013-01-31 07:15:00,
2013-01-31 02:20:00,57.0,43.2,30.05,NNW,337,0.0,9.0,60,0.09,,,0.15,Weather View 32 v70,2013-01-31 07:20:00,
2013-01-31 02:25:00,57.0,43.2,30.05,NNW,337,0.0,9.0,60,0.09,,,0.15,Weather View 32 v70,2013-01-31 07:25:00,
2013-01-31 02:30:00,57.0,42.8,30.06,NNW,337,0.0,9.0,59,0.08,,,0.15,Weather View 32 v70,2013-01-31 07:30:00,
2013-01-31 02:35:00,58.0,43.7,30.06,NNW,337,0.0,8.0,59,0.08,,,0.15,Weather View 32 v70,2013-01-31 07:35:00,
2013-01-31 02:40:00,58.0,43.7,30.05,North,360,0.0,8.0,59,0.07,,,0.15,Weather View 32 v70,2013-01-31 07:40:00,
2013-01-31 02:45:00,58.0,43.7,30.05,North,360,0.0,7.0,59,0.05,,,0.15,Weather View 32 v70,2013-01-31 07:45:00,
2013-01-31 02:50:00,58.0,43.7,30.06,North,360,0.0,7.0,59,0.04,,,0.15,Weather View 32 v70,2013-01-31 07:50:00,
2013-01-31 02:58:00,58.0,43.7,30.06,North,360,0.0,6.0,59,0.02,,,0.15,Weather View 32 v70,2013-01-31 07:58:00,
2013-01-31 03:05:00,58.0,43.7,30.06,North,360,0.0,5.0,59,0.01,,,0.15,Weather View 32 v70,2013-01-31 08:05:00,
2013-01-31 03:10:00,58.0,43.3,30.06,North,360,0.0,4.0,58,0.00,,,0.15,Weather View 32 v70,2013-01-31 08:10:00,
2013-01-31 03:15:00,58.0,43.3,30.07,North,360,0.0,4.0,58,0.00,,,0.15,Weather View 32 v70,2013-01-31 08:15:00,
2013-01-31 03:20:00,58.0,43.3,30.07,North,360,0.0,2.0,58,0.00,,,0.15,Weather View 32 v70,2013-01-31 08:20:00,
2013-01-31 03:25:00,58.0,43.3,30.07,North,360,0.0,1.0,58,0.00,,,0.15,Weather View 32 v70,2013-01-31 08:25:00,
2013-01-31 03:30:00,58.0,43.3,30.07,North,360,0.0,1.0,58,0.00,,,0.15,Weather View 32 v70,2013-01-31 08:30:00,
2013-01-31 03:35:00,58.0,48.2,30.07,North,360,0.0,1.0,70,0.00,,,0.15,Weather View 32 v70,2013-01-31 08:35:00,
2013-01-31 03:40:00,58.0,48.2,30.07,North,360,0.0,1.0,70,0.00,,,0.15,Weather View 32 v70,2013-01-31 08:40:00,
2013-01-31 03:45:00,58.0,43.3,30.07,North,360,0.0,1.0,58,0.00,,,0.15,Weather View 32 v70,2013-01-31 08:45:00,
2013-01-31 03:50:00,58.0,43.3,30.07,NNW,337,0.0,1.0,58,0.00,,,0.15,Weather View 32 v70,2013-01-31 08:50:00,
2013-01-31 03:55:00,58.0,42.8,30.07,NNW,337,0.0,1.0,57,0.00,,,0.15,Weather View 32 v70,2013-01-31 08:55:00,
2013-01-31 04:00:00,58.0,42.8,30.07,NNW,337,0.0,1.0,57,0.00,,,0.15,Weather View 32 v70,2013-01-31 09:00:00,
2013-01-31 04:10:00,58.0,42.8,30.07,NNW,337,0.0,1.0,57,0.00,,,0.15,Weather View 32 v70,2013-01-31 09:10:00,
2013-01-31 04:15:00,58.0,42.8,30.07,North,360,0.0,1.0,57,0.00,,,0.15,Weather View 32 v70,2013-01-31 09:15:00,
2013-01-31 04:20:00,58.0,42.4,30.08,North,360,0.0,1.0,56,0.00,,,0.15,Weather View 32 v70,2013-01-31 09:20:00,
2013-01-31 04:35:00,58.0,46.3,30.08,NNW,337,15.0,15.0,65,0.00,,,0.15,Weather View 32 v70,2013-01-31 09:35:00,
2013-01-31 04:50:00,60.0,53.5,30.08,NNW,337,8.0,15.0,79,0.00,,,0.15,Weather View 32 v70,2013-01-31 09:50:00,
2013-01-31 05:35:00,60.0,54.1,30.09,NNW,337,12.0,15.0,81,0.00,,,0.15,Weather View 32 v70,2013-01-31 10:35:00,
2013-01-31 05:55:00,60.0,54.1,30.11,NNW,337,10.0,12.0,81,0.00,,,0.15,Weather View 32 v70,2013-01-31 10:55:00,
2013-01-31 06:10:00,60.0,54.5,30.11,NNW,337,11.0,17.0,82,0.00,,,0.15,Weather View 32 v70,2013-01-31 11:10:00,
2013-01-31 06:20:00,60.0,54.5,30.12,NNW,337,7.0,17.0,82,0.00,,,0.15,Weather View 32 v70,2013-01-31 11:20:00,
2013-01-31 06:25:00,60.0,54.5,30.13,NNW,337,10.0,17.0,82,0.00,,,0.15,Weather View 32 v70,2013-01-31 11:25:00,
2013-01-31 06:30:00,59.0,53.2,30.13,NNW,337,13.0,17.0,81,0.00,,,0.15,Weather View 32 v70,2013-01-31 11:30:00,
2013-01-31 06:35:00,60.0,54.5,30.13,NNW,337,15.0,17.0,82,0.00,,,0.15,Weather View 32 v70,2013-01-31 11:35:00,
2013-01-31 06:50:00,59.0,53.2,30.13,NNW,337,13.0,25.0,81,0.00,,,0.15,Weather View 32 v70,2013-01-31 11:50:00,
2013-01-31 06:55:00,59.0,53.2,30.14,NNW,337,12.0,25.0,81,0.00,,,0.15,Weather View 32 v70,2013-01-31 11:55:00,
2013-01-31 07:00:00,59.0,53.2,30.14,North,360,14.0,25.0,81,0.00,,,0.15,Weather View 32 v70,2013-01-31 12:00:00,
2013-01-31 07:10:00,58.0,51.8,30.15,North,360,17.0,25.0,80,0.00,,,0.15,Weather View 32 v70,2013-01-31 12:10:00,
2013-01-31 07:15:00,58.0,51.8,30.15,NNW,337,17.0,25.0,80,0.00,,,0.15,Weather View 32 v70,2013-01-31 12:15:00,
2013-01-31 07:20:00,57.0,51.2,30.16,NNW,337,13.0,25.0,81,0.00,,,0.15,Weather View 32 v70,2013-01-31 12:20:00,
2013-01-31 07:25:00,57.0,51.2,30.16,NNW,337,4.0,25.0,81,0.00,,,0.15,Weather View 32 v70,2013-01-31 12:25:00,
2013-01-31 07:30:00,57.0,51.2,30.15,NNW,337,15.0,25.0,81,0.00,,,0.15,Weather View 32 v70,2013-01-31 12:30:00,
2013-01-31 07:35:00,57.0,51.2,30.15,NNW,337,16.0,25.0,81,0.00,,,0.15,Weather View 32 v70,2013-01-31 12:35:00,
2013-01-31 07:40:00,57.0,51.2,30.16,NNW,337,12.0,25.0,81,0.00,,,0.15,Weather View 32 v70,2013-01-31 12:40:00,
2013-01-31 07:45:00,57.0,51.2,30.16,NNW,337,13.0,25.0,81,0.00,,,0.15,Weather View 32 v70,2013-01-31 12:45:00,
2013-01-31 07:54:00,57.0,51.2,30.17,NNW,337,16.0,22.0,81,0.00,,,0.15,Weather View 32 v70,2013-01-31 12:54:00,
2013-01-31 08:00:00,57.0,51.2,30.17,NNW,337,9.0,22.0,81,0.00,,,0.15,Weather View 32 v70,2013-01-31 13:00:00,
2013-01-31 08:55:00,57.0,51.2,30.21,North,360,10.0,16.0,81,0.00,,,0.15,Weather View 32 v70,2013-01-31 13:55:00,
2013-01-31 09:10:00,56.0,50.2,30.22,NNW,337,10.0,10.0,81,0.00,,,0.15,Weather View 32 v70,2013-01-31 14:10:00,
2013-01-31 09:25:00,56.0,50.2,30.23,NNW,337,14.0,17.0,81,0.00,,,0.15,Weather View 32 v70,2013-01-31 14:25:00,
2013-01-31 09:30:00,57.0,51.5,30.23,NNW,337,13.0,17.0,82,0.00,,,0.15,Weather View 32 v70,2013-01-31 14:30:00,
2013-01-31 09:55:00,57.0,51.2,30.24,NNW,337,15.0,17.0,81,0.00,,,0.15,Weather View 32 v70,2013-01-31 14:55:00,
2013-01-31 10:05:00,55.0,49.3,30.24,NNW,337,12.0,17.0,81,0.00,,,0.15,Weather View 32 v70,2013-01-31 15:05:00,
2013-01-31 10:40:00,56.0,50.2,30.25,NNW,337,14.0,17.0,81,0.00,,,0.15,Weather View 32 v70,2013-01-31 15:40:00,
2013-01-31 10:45:00,57.0,51.5,30.25,North,360,17.0,17.0,82,0.00,,,0.15,Weather View 32 v70,2013-01-31 15:45:00,
2013-01-31 10:50:00,56.0,50.2,30.26,NNW,337,13.0,17.0,81,0.00,,,0.15,Weather View 32 v70,2013-01-31 15:50:00,
2013-01-31 11:00:00,56.0,50.6,30.26,NNW,337,7.0,19.0,82,0.00,,,0.15,Weather View 32 v70,2013-01-31 16:00:00,
2013-01-31 11:05:00,56.0,50.6,30.26,NNW,337,14.0,19.0,82,0.00,,,0.15,Weather View 32 v70,2013-01-31 16:05:00,
2013-01-31 11:10:00,56.0,50.6,30.27,NNW,337,13.0,19.0,82,0.00,,,0.15,Weather View 32 v70,2013-01-31 16:10:00,
2013-01-31 11:15:00,56.0,50.6,30.26,North,360,15.0,19.0,82,0.00,,,0.15,Weather View 32 v70,2013-01-31 16:15:00,
2013-01-31 11:20:00,56.0,50.6,30.26,NNW,337,9.0,19.0,82,0.00,,,0.15,Weather View 32 v70,2013-01-31 16:20:00,
2013-01-31 11:25:00,56.0,50.6,30.25,NNW,337,12.0,19.0,82,0.00,,,0.15,Weather View 32 v70,2013-01-31 16:25:00,
2013-01-31 11:30:00,55.0,49.6,30.26,NNW,337,15.0,19.0,82,0.00,,,0.15,Weather View 32 v70,2013-01-31 16:30:00,
2013-01-31 11:35:00,55.0,49.6,30.26,NNW,337,11.0,19.0,82,0.00,,,0.15,Weather View 32 v70,2013-01-31 16:35:00,
2013-01-31 11:40:00,55.0,49.6,30.25,NNW,337,12.0,19.0,82,0.00,,,0.15,Weather View 32 v70,2013-01-31 16:40:00,
2013-01-31 11:45:00,56.0,50.6,30.25,North,360,15.0,19.0,82,0.00,,,0.15,Weather View 32 v70,2013-01-31 16:45:00,
2013-01-31 11:50:00,56.0,50.6,30.25,North,360,6.0,19.0,82,0.00,,,0.15,Weather View 32 v70,2013-01-31 16:50:00,
2013-01-31 11:55:00,56.0,50.6,30.26,NNW,337,5.0,19.0,82,0.00,,,0.15,Weather View 32 v70,2013-01-31 16:55:00,
2013-01-31 12:00:00,56.0,50.6,30.26,North,360,18.0,18.0,82,0.00,,,0.15,Weather View 32 v70,2013-01-31 17:00:00,
2013-01-31 12:05:00,56.0,50.6,30.26,NNW,337,10.0,18.0,82,0.00,,,0.15,Weather View 32 v70,2013-01-31 17:05:00,
2013-01-31 12:10:00,56.0,50.6,30.25,ENE,67,5.0,18.0,82,0.00,,,0.15,Weather View 32 v70,2013-01-31 17:10:00,
2013-01-31 12:20:00,55.0,49.6,30.25,NNW,337,11.0,18.0,82,0.00,,,0.15,Weather View 32 v70,2013-01-31 17:20:00,
2013-01-31 12:30:00,56.0,50.6,30.25,NNW,337,10.0,18.0,82,0.00,,,0.15,Weather View 32 v70,2013-01-31 17:30:00,
2013-01-31 12:35:00,56.0,50.6,30.25,NNW,337,8.0,18.0,82,0.00,,,0.15,Weather View 32 v70,2013-01-31 17:35:00,
2013-01-31 12:45:00,55.0,49.6,30.26,NNW,337,8.0,18.0,82,0.00,,,0.15,Weather View 32 v70,2013-01-31 17:45:00,
2013-01-31 12:50:00,56.0,50.6,30.25,North,360,9.0,19.0,82,0.00,,,0.15,Weather View 32 v70,2013-01-31 17:50:00,
2013-01-31 12:55:00,56.0,50.6,30.25,NNW,337,3.0,19.0,82,0.00,,,0.15,Weather View 32 v70,2013-01-31 17:55:00,
2013-01-31 13:00:00,55.0,49.6,30.25,NNW,337,23.0,23.0,82,0.00,,,0.15,Weather View 32 v70,2013-01-31 18:00:00,
2013-01-31 13:05:00,56.0,50.6,30.25,North,360,11.0,23.0,82,0.00,,,0.15,Weather View 32 v70,2013-01-31 18:05:00,
2013-01-31 13:10:00,56.0,50.6,30.25,NNW,337,11.0,23.0,82,0.00,,,0.15,Weather View 32 v70,2013-01-31 18:10:00,
2013-01-31 13:20:00,55.0,49.6,30.25,NNW,337,15.0,23.0,82,0.00,,,0.15,Weather View 32 v70,2013-01-31 18:20:00,
2013-01-31 13:25:00,56.0,50.6,30.24,NNW,337,13.0,23.0,82,0.00,,,0.15,Weather View 32 v70,2013-01-31 18:25:00,
2013-01-31 13:30:00,55.0,49.6,30.24,NNW,337,12.0,23.0,82,0.00,,,0.15,Weather View 32 v70,2013-01-31 18:30:00,
2013-01-31 13:35:00,55.0,49.6,30.24,North,360,12.0,23.0,82,0.00,,,0.15,Weather View 32 v70,2013-01-31 18:35:00,
2013-01-31 13:40:00,56.0,50.6,30.24,NNW,337,6.0,23.0,82,0.00,,,0.15,Weather View 32 v70,2013-01-31 18:40:00,
2013-01-31 13:45:00,56.0,50.6,30.24,NNW,337,12.0,23.0,82,0.00,,,0.15,Weather View 32 v70,2013-01-31 18:45:00,
2013-01-31 13:50:00,57.0,51.5,30.24,NNW,337,13.0,23.0,82,0.00,,,0.15,Weather View 32 v70,2013-01-31 18:50:00,
2013-01-31 13:55:00,55.0,49.6,30.23,NNW,337,12.0,23.0,82,0.00,,,0.15,Weather View 32 v70,2013-01-31 18:55:00,
2013-01-31 14:00:00,56.0,50.6,30.23,ENE,67,7.0,23.0,82,0.00,,,0.15,Weather View 32 v70,2013-01-31 19:00:00,
2013-01-31 14:05:00,57.0,51.5,30.24,NNW,337,7.0,17.0,82,0.00,,,0.15,Weather View 32 v70,2013-01-31 19:05:00,
2013-01-31 14:20:00,57.0,51.5,30.25,NNW,337,11.0,22.0,82,0.00,,,0.15,Weather View 32 v70,2013-01-31 19:20:00,
2013-01-31 14:25:00,56.0,50.6,30.24,NNW,337,15.0,22.0,82,0.00,,,0.15,Weather View 32 v70,2013-01-31 19:25:00,
2013-01-31 14:30:00,55.0,49.6,30.24,NNW,337,15.0,23.0,82,0.00,,,0.15,Weather View 32 v70,2013-01-31 19:30:00,
2013-01-31 14:40:00,57.0,51.5,30.24,NNW,337,8.0,23.0,82,0.00,,,0.15,Weather View 32 v70,2013-01-31 19:40:00,
2013-01-31 14:45:00,57.0,51.5,30.24,NNW,337,11.0,23.0,82,0.00,,,0.15,Weather View 32 v70,2013-01-31 19:45:00,
2013-01-31 14:55:00,57.0,51.5,30.25,NNW,337,19.0,23.0,82,0.00,,,0.15,Weather View 32 v70,2013-01-31 19:55:00,
2013-01-31 15:00:00,57.0,51.5,30.25,NNW,337,3.0,23.0,82,0.00,,,0.15,Weather View 32 v70,2013-01-31 20:00:00,
2013-01-31 15:05:00,56.0,50.6,30.25,NNW,337,9.0,23.0,82,0.00,,,0.15,Weather View 32 v70,2013-01-31 20:05:00,
2013-01-31 15:15:00,56.0,50.6,30.25,NNW,337,13.0,23.0,82,0.00,,,0.15,Weather View 32 v70,2013-01-31 20:15:00,
2013-01-31 15:20:00,56.0,50.6,30.25,NNW,337,23.0,23.0,82,0.00,,,0.15,Weather View 32 v70,2013-01-31 20:20:00,
2013-01-31 15:25:00,56.0,50.6,30.25,NNW,337,12.0,23.0,82,0.00,,,0.15,Weather View 32 v70,2013-01-31 20:25:00,
2013-01-31 15:35:00,56.0,50.6,30.25,North,360,12.0,23.0,82,0.00,,,0.15,Weather View 32 v70,2013-01-31 20:35:00,
2013-01-31 15:40:00,57.0,51.5,30.25,NNW,337,9.0,23.0,82,0.00,,,0.15,Weather View 32 v70,2013-01-31 20:40:00,
2013-01-31 15:45:00,56.0,50.6,30.25,NNW,337,10.0,23.0,82,0.00,,,0.15,Weather View 32 v70,2013-01-31 20:45:00,
2013-01-31 15:50:00,57.0,51.5,30.25,NNW,337,14.0,23.0,82,0.00,,,0.15,Weather View 32 v70,2013-01-31 20:50:00,
2013-01-31 15:59:00,57.0,51.5,30.25,NNW,337,12.0,23.0,82,0.00,,,0.15,Weather View 32 v70,2013-01-31 20:59:00,
2013-01-31 16:05:00,56.0,50.6,30.25,NNW,337,16.0,23.0,82,0.00,,,0.15,Weather View 32 v70,2013-01-31 21:05:00,
2013-01-31 16:30:00,57.0,51.5,30.25,NNW,337,13.0,21.0,82,0.00,,,0.15,Weather View 32 v70,2013-01-31 21:30:00,
2013-01-31 16:45:00,56.0,50.6,30.25,NNW,337,6.0,21.0,82,0.00,,,0.15,Weather View 32 v70,2013-01-31 21:45:00,
2013-01-31 16:50:00,55.0,49.6,30.25,NNW,337,11.0,21.0,82,0.00,,,0.15,Weather View 32 v70,2013-01-31 21:50:00,
2013-01-31 17:00:00,56.0,50.6,30.25,NNW,337,16.0,21.0,82,0.00,,,0.15,Weather View 32 v70,2013-01-31 22:00:00,
2013-01-31 17:05:00,56.0,50.6,30.25,NNW,337,6.0,17.0,82,0.00,,,0.15,Weather View 32 v70,2013-01-31 22:05:00,
2013-01-31 17:10:00,56.0,50.6,30.25,NNW,337,9.0,17.0,82,0.00,,,0.15,Weather View 32 v70,2013-01-31 22:10:00,
2013-01-31 17:15:00,55.0,49.6,30.25,NNW,337,15.0,19.0,82,0.00,,,0.15,Weather View 32 v70,2013-01-31 22:15:00,
2013-01-31 17:20:00,55.0,49.6,30.25,NNW,337,12.0,19.0,82,0.00,,,0.15,Weather View 32 v70,2013-01-31 22:20:00,
2013-01-31 17:25:00,55.0,49.6,30.25,NNW,337,9.0,19.0,82,0.00,,,0.15,Weather View 32 v70,2013-01-31 22:25:00,
2013-01-31 17:35:00,55.0,49.6,30.25,NNW,337,16.0,19.0,82,0.00,,,0.15,Weather View 32 v70,2013-01-31 22:35:00,
2013-01-31 17:40:00,55.0,49.6,30.25,NNW,337,9.0,19.0,82,0.00,,,0.15,Weather View 32 v70,2013-01-31 22:40:00,
2013-01-31 17:50:00,54.0,48.6,30.25,NNW,337,9.0,19.0,82,0.00,,,0.15,Weather View 32 v70,2013-01-31 22:50:00,
2013-01-31 18:00:00,54.0,48.6,30.25,NNW,337,9.0,19.0,82,0.00,,,0.15,Weather View 32 v70,2013-01-31 23:00:00,
2013-01-31 18:06:00,54.0,48.6,30.25,NNW,337,6.0,19.0,82,0.00,,,0.15,Weather View 32 v70,2013-01-31 23:06:00,
2013-01-31 18:15:00,53.0,47.3,30.24,NNW,337,9.0,17.0,81,0.00,,,0.15,Weather View 32 v70,2013-01-31 23:15:00,
2013-01-31 18:20:00,53.0,47.3,30.25,NNW,337,8.0,17.0,81,0.00,,,0.15,Weather View 32 v70,2013-01-31 23:20:00,
2013-01-31 18:25:00,53.0,47.3,30.24,NNW,337,8.0,17.0,81,0.00,,,0.15,Weather View 32 v70,2013-01-31 23:25:00,
2013-01-31 18:30:00,53.0,47.3,30.24,NNW,337,5.0,16.0,81,0.00,,,0.15,Weather View 32 v70,2013-01-31 23:30:00,
2013-01-31 18:40:00,53.0,47.3,30.24,North,360,5.0,12.0,81,0.00,,,0.15,Weather View 32 v70,2013-01-31 23:40:00,
2013-01-31 18:45:00,52.0,46.3,30.24,NNW,337,6.0,12.0,81,0.00,,,0.15,Weather View 32 v70,2013-01-31 23:45:00,
2013-01-31 18:50:00,52.0,46.3,30.24,NNW,337,3.0,12.0,81,0.00,,,0.15,Weather View 32 v70,2013-01-31 23:50:00,
2013-01-31 18:55:00,52.0,46.3,30.24,NNW,337,3.0,11.0,81,0.00,,,0.15,Weather View 32 v70,2013-01-31 23:55:00,
2013-01-31 19:00:00,52.0,46.3,30.24,NNW,337,7.0,11.0,81,0.00,,,0.15,Weather View 32 v70,2013-02-01 00:00:00,
2013-01-31 19:05:00,52.0,46.3,30.25,NNW,337,7.0,11.0,81,0.00,,,0.15,Weather View 32 v70,2013-02-01 00:05:00,
2013-01-31 19:10:00,52.0,46.3,30.25,NNW,337,4.0,9.0,81,0.00,,,0.15,Weather View 32 v70,2013-02-01 00:10:00,
2013-01-31 19:20:00,52.0,46.3,30.25,NNW,337,6.0,12.0,81,0.00,,,0.15,Weather View 32 v70,2013-02-01 00:20:00,
2013-01-31 19:25:00,52.0,46.3,30.25,NNW,337,7.0,12.0,81,0.00,,,0.15,Weather View 32 v70,2013-02-01 00:25:00,
2013-01-31 19:35:00,52.0,46.3,30.25,NNW,337,6.0,12.0,81,0.00,,,0.15,Weather View 32 v70,2013-02-01 00:35:00,
2013-01-31 19:40:00,52.0,46.3,30.25,NNW,337,7.0,12.0,81,0.00,,,0.15,Weather View 32 v70,2013-02-01 00:40:00,
2013-01-31 19:50:00,52.0,46.3,30.26,NNW,337,7.0,12.0,81,0.00,,,0.15,Weather View 32 v70,2013-02-01 00:50:00,
2013-01-31 19:55:00,52.0,46.3,30.26,NNW,337,2.0,12.0,81,0.00,,,0.15,Weather View 32 v70,2013-02-01 00:55:00,
2013-01-31 20:00:00,52.0,46.3,30.25,NNW,337,5.0,12.0,81,0.00,,,0.15,Weather View 32 v70,2013-02-01 01:00:00,
2013-01-31 20:05:00,52.0,46.3,30.26,NNW,337,5.0,12.0,81,0.00,,,0.15,Weather View 32 v70,2013-02-01 01:05:00,
2013-01-31 20:10:00,52.0,46.3,30.26,NNW,337,1.0,12.0,81,0.00,,,0.15,Weather View 32 v70,2013-02-01 01:10:00,
2013-01-31 20:15:00,51.0,45.4,30.26,NNW,337,1.0,12.0,81,0.00,,,0.15,Weather View 32 v70,2013-02-01 01:15:00,
2013-01-31 20:20:00,51.0,45.4,30.27,NNW,337,1.0,9.0,81,0.00,,,0.15,Weather View 32 v70,2013-02-01 01:20:00,
2013-01-31 20:25:00,51.0,45.4,30.27,NNW,337,2.0,9.0,81,0.00,,,0.15,Weather View 32 v70,2013-02-01 01:25:00,
2013-01-31 20:30:00,51.0,45.4,30.26,NNW,337,5.0,9.0,81,0.00,,,0.15,Weather View 32 v70,2013-02-01 01:30:00,
2013-01-31 20:35:00,51.0,45.4,30.27,NNW,337,6.0,9.0,81,0.00,,,0.15,Weather View 32 v70,2013-02-01 01:35:00,
2013-01-31 20:45:00,51.0,45.4,30.26,NNW,337,4.0,9.0,81,0.00,,,0.15,Weather View 32 v70,2013-02-01 01:45:00,
2013-01-31 20:55:00,51.0,45.4,30.26,NNW,337,4.0,8.0,81,0.00,,,0.15,Weather View 32 v70,2013-02-01 01:55:00,
2013-01-31 21:00:00,51.0,45.4,30.27,NNW,337,0.0,8.0,81,0.00,,,0.15,Weather View 32 v70,2013-02-01 02:00:00,
2013-01-31 21:05:00,51.0,45.4,30.27,NNW,337,2.0,7.0,81,0.00,,,0.15,Weather View 32 v70,2013-02-01 02:05:00,
2013-01-31 21:10:00,51.0,45.4,30.27,NNW,337,2.0,7.0,81,0.00,,,0.15,Weather View 32 v70,2013-02-01 02:10:00,
2013-01-31 21:15:00,50.0,44.4,30.27,NNW,337,5.0,7.0,81,0.00,,,0.15,Weather View 32 v70,2013-02-01 02:15:00,
2013-01-31 21:20:00,50.0,44.4,30.27,NNW,337,0.0,7.0,81,0.00,,,0.15,Weather View 32 v70,2013-02-01 02:20:00,
2013-01-31 21:25:00,50.0,44.4,30.27,NNW,337,1.0,7.0,81,0.00,,,0.15,Weather View 32 v70,2013-02-01 02:25:00,
2013-01-31 21:30:00,50.0,44.4,30.27,NNW,337,0.0,7.0,81,0.00,,,0.15,Weather View 32 v70,2013-02-01 02:30:00,
2013-01-31 21:35:00,50.0,44.4,30.27,NNW,337,0.0,7.0,81,0.00,,,0.15,Weather View 32 v70,2013-02-01 02:35:00,
2013-01-31 21:40:00,50.0,44.4,30.27,NNW,337,0.0,7.0,81,0.00,,,0.15,Weather View 32 v70,2013-02-01 02:40:00,
2013-01-31 21:50:00,49.0,43.4,30.27,NNW,337,1.0,7.0,81,0.00,,,0.15,Weather View 32 v70,2013-02-01 02:50:00,
2013-01-31 21:55:00,49.0,43.4,30.27,North,360,0.0,7.0,81,0.00,,,0.15,Weather View 32 v70,2013-02-01 02:55:00,
2013-01-31 22:00:00,49.0,43.4,30.27,NNW,337,0.0,5.0,81,0.00,,,0.15,Weather View 32 v70,2013-02-01 03:00:00,
2013-01-31 22:08:00,48.0,42.4,30.26,NNW,337,3.0,5.0,81,0.00,,,0.15,Weather View 32 v70,2013-02-01 03:08:00,
2013-01-31 22:15:00,50.0,44.4,30.27,NNW,337,2.0,5.0,81,0.00,,,0.15,Weather View 32 v70,2013-02-01 03:15:00,
2013-01-31 22:20:00,49.0,43.4,30.27,NNW,337,1.0,5.0,81,0.00,,,0.15,Weather View 32 v70,2013-02-01 03:20:00,
2013-01-31 22:25:00,50.0,44.4,30.27,NNW,337,3.0,4.0,81,0.00,,,0.15,Weather View 32 v70,2013-02-01 03:25:00,
2013-01-31 22:30:00,50.0,44.4,30.27,North,360,0.0,3.0,81,0.00,,,0.15,Weather View 32 v70,2013-02-01 03:30:00,